Council Bluffs, IA

9:09 PM CST on December 14, 2019 (GMT -0600)
Council Bluffs Municipal

Weather History for KCBF - November, 2019

Change the Weather History Date:

Tuesday, November 12, 2019

  Actual Average Record
Temperature  
Mean Temperature 12 °F -  
Max Temperature 24 °F 48 °F 73 °F (2005)
Min Temperature 1 °F 32 °F 10 °F (2013)
Degree Days  
Heating Degree Days 52    
Moisture  
Dew Point 6 °F    
Average Humidity 70    
Maximum Humidity 100    
Minimum Humidity 50    
Precipitation  
Precipitation 0.00 in - - ()
Sea Level Pressure  
Sea Level Pressure 30.38 in    
Wind  
Wind Speed 9 mph ()    
Max Wind Speed 21 mph    
Max Gust Speed 29 mph    
Visibility 10.0 miles    
Events      
Averages and records for this station are not official NWS values.
T = Trace of Precipitation, MM = Missing Value Source: Averaged Metar Reports

Daily Weather History Graph

Daily Weather History Graph

Search for Another Location

Airport or City:

Astronomy

Nov. 12, 2019 Rise Set
Actual Time 7:07 AM CST 5:06 PM CST
Civil Twilight 6:37 AM CST 5:35 PM CST
Nautical Twilight 6:04 AM CST 6:09 PM CST
Astronomical Twilight 5:32 AM CST 6:41 PM CST
Moon 5:34 PM CST (11/12) 6:59 AM CST (11/12)
Length of Visible Light 10h 58m
Length of Day
9h 59m
Full, 100% of the Moon is Illuminated
Nov 12
Full
Nov 19
Last Quarter
Nov 26
New
Dec 4
First Quarter
Dec 11
Full

Hourly Weather History & Observations

Time (CST) Temp. Windchill Dew Point Humidity Pressure Visibility Wind Dir Wind Speed Gust Speed Precip Events Conditions
12:15 AM 5.0 °F - -0.4 °F 78% 30.65 in 10.0 mi North - - N/A   Clear
12:35 AM 5.0 °F -6.9 °F -0.4 °F 78% 30.65 in 10.0 mi NW 6.9 mph - N/A   Clear
12:55 AM 5.0 °F -4.1 °F -0.4 °F 78% 30.65 in 10.0 mi NW 4.6 mph - N/A   Clear
1:35 AM 5.0 °F -2.1 °F -0.4 °F 78% 30.64 in 10.0 mi NW 3.5 mph - N/A   Clear
1:55 AM 5.0 °F -4.1 °F 1.4 °F 85% 30.63 in 10.0 mi WNW 4.6 mph - N/A   Clear
2:15 AM 5.0 °F -4.1 °F 1.4 °F 85% 30.63 in 10.0 mi West 4.6 mph - N/A   Clear
2:35 AM 5.0 °F -2.1 °F 3.2 °F 92% 30.63 in 10.0 mi WSW 3.5 mph - N/A   Clear
2:55 AM 5.0 °F -2.1 °F 3.2 °F 92% 30.63 in 10.0 mi WSW 3.5 mph - N/A   Clear
3:15 AM 5.0 °F -4.1 °F 5.0 °F 100% 30.62 in 10.0 mi WSW 4.6 mph - N/A   Clear
3:35 AM 5.0 °F -4.1 °F 3.2 °F 92% 30.61 in 10.0 mi West 4.6 mph - N/A   Clear
3:55 AM 5.0 °F -4.1 °F 5.0 °F 100% 30.61 in 10.0 mi West 4.6 mph - N/A   Clear
4:15 AM 5.0 °F -4.1 °F 3.2 °F 92% 30.61 in 10.0 mi West 4.6 mph - N/A   Clear
4:35 AM 5.0 °F - 3.2 °F 92% 30.61 in 10.0 mi North - - N/A   Clear
4:55 AM 5.0 °F - 3.2 °F 92% 30.61 in 10.0 mi North - - N/A   Clear
5:15 AM 5.0 °F - 3.2 °F 92% 30.60 in 10.0 mi Calm Calm - N/A   Clear
5:35 AM 5.0 °F - 5.0 °F 100% 30.60 in 10.0 mi Calm Calm - N/A   Clear
5:55 AM 3.2 °F - 1.4 °F 92% 30.59 in 10.0 mi Calm Calm - N/A   Clear
6:15 AM 3.2 °F -6.2 °F 3.2 °F 100% 30.58 in 10.0 mi South 4.6 mph - N/A   Clear
6:35 AM 1.4 °F -9.9 °F 1.4 °F 100% 30.57 in 10.0 mi South 5.8 mph - N/A   Clear
6:55 AM 3.2 °F -7.8 °F 3.2 °F 100% 30.56 in 10.0 mi South 5.8 mph - N/A   Clear
7:15 AM 3.2 °F -9.1 °F 3.2 °F 100% 30.56 in 10.0 mi South 6.9 mph - N/A   Clear
7:35 AM 5.0 °F -5.6 °F 5.0 °F 100% 30.56 in 10.0 mi South 5.8 mph - N/A   Clear
7:55 AM 5.0 °F -5.6 °F 5.0 °F 100% 30.56 in 10.0 mi South 5.8 mph - N/A   Clear
8:15 AM 6.8 °F -2.0 °F 5.0 °F 92% 30.56 in 10.0 mi South 4.6 mph - N/A   Clear
8:35 AM 8.6 °F - 6.8 °F 92% 30.55 in 10.0 mi North - - N/A   Clear
8:55 AM 10.4 °F -2.4 °F 8.6 °F 92% 30.54 in 10.0 mi SSW 9.2 mph - N/A   Clear
9:15 AM 12.2 °F -1.8 °F 3.2 °F 67% 30.53 in 10.0 mi South 11.5 mph - N/A   Clear
9:35 AM 12.2 °F -1.0 °F 3.2 °F 67% 30.53 in 10.0 mi SSW 10.4 mph - N/A   Clear
9:55 AM 14.0 °F 0.5 °F 5.0 °F 67% 30.52 in 10.0 mi South 11.5 mph 18.4 mph N/A   Clear
10:15 AM 15.8 °F 1.4 °F 5.0 °F 62% 30.50 in 10.0 mi SSW 13.8 mph - N/A   Clear
10:35 AM 15.8 °F 0.9 °F 3.2 °F 58% 30.49 in 10.0 mi SW 15.0 mph - N/A   Clear
10:55 AM 17.6 °F 4.3 °F 5.0 °F 58% 30.48 in 10.0 mi SSW 12.7 mph 19.6 mph N/A   Clear
11:35 AM 19.4 °F 6.6 °F 5.0 °F 54% 30.44 in 10.0 mi SSW 12.7 mph 21.9 mph N/A   Clear
11:55 AM 21.2 °F 8.9 °F 5.0 °F 50% 30.42 in 10.0 mi South 12.7 mph - N/A   Clear
12:15 PM 21.2 °F 8.3 °F 6.8 °F 54% 30.40 in 10.0 mi South 13.8 mph 21.9 mph N/A   Clear
12:35 PM 21.2 °F 6.8 °F 5.0 °F 50% 30.38 in 10.0 mi South 17.3 mph - N/A   Clear
12:55 PM 21.2 °F 7.8 °F 6.8 °F 54% 30.36 in 10.0 mi South 15.0 mph 21.9 mph N/A   Clear
1:15 PM 23.0 °F 9.6 °F 6.8 °F 50% 30.35 in 10.0 mi South 16.1 mph 24.2 mph N/A   Clear
1:35 PM 23.0 °F 9.2 °F 6.8 °F 50% 30.33 in 10.0 mi South 17.3 mph 24.2 mph N/A   Clear
1:55 PM 23.0 °F 9.2 °F 8.6 °F 54% 30.31 in 10.0 mi South 17.3 mph 23.0 mph N/A   Clear
2:15 PM 23.0 °F 9.2 °F 8.6 °F 54% 30.29 in 10.0 mi South 17.3 mph 25.3 mph N/A   Clear
2:35 PM 23.0 °F 8.7 °F 6.8 °F 50% 30.29 in 10.0 mi South 18.4 mph 24.2 mph N/A   Clear
2:55 PM 23.0 °F 8.0 °F 8.6 °F 54% 30.27 in 10.0 mi South 20.7 mph - N/A   Clear
3:15 PM 24.8 °F 11.1 °F 8.6 °F 50% 30.26 in 10.0 mi South 18.4 mph 25.3 mph N/A   Clear
3:35 PM 23.0 °F 8.7 °F 8.6 °F 54% 30.25 in 10.0 mi South 18.4 mph 28.8 mph N/A   Clear
3:55 PM 23.0 °F 8.3 °F 8.6 °F 54% 30.24 in 10.0 mi South 19.6 mph - N/A   Clear
4:15 PM 23.0 °F 8.7 °F 8.6 °F 54% 30.22 in 10.0 mi South 18.4 mph 27.6 mph N/A   Clear
4:35 PM 23.0 °F 9.6 °F 10.4 °F 59% 30.22 in 10.0 mi South 16.1 mph 26.5 mph N/A   Clear
4:55 PM 23.0 °F 10.1 °F 10.4 °F 59% 30.21 in 10.0 mi South 15.0 mph - N/A   Clear
5:15 PM 21.2 °F 8.3 °F 10.4 °F 63% 30.20 in 10.0 mi South 13.8 mph 21.9 mph N/A   Clear
5:35 PM 21.2 °F 7.8 °F 10.4 °F 63% 30.17 in 10.0 mi South 15.0 mph - N/A   Clear
5:55 PM 21.2 °F - 10.4 °F 63% 30.16 in 10.0 mi North - - N/A   Clear
6:15 PM 21.2 °F - 10.4 °F 63% 30.15 in 10.0 mi North - - N/A   Clear
6:35 PM 19.4 °F - 10.4 °F 68% 30.14 in 10.0 mi North - - N/A   Clear
6:55 PM 19.4 °F - 10.4 °F 68% 30.14 in 10.0 mi North - - N/A   Clear
7:35 PM 21.2 °F 7.3 °F 8.6 °F 58% 30.11 in 10.0 mi South 16.1 mph 21.9 mph N/A   Clear
7:55 PM 23.0 °F - 8.6 °F 54% 30.10 in 10.0 mi North - - N/A   Clear
8:15 PM 23.0 °F 8.7 °F 8.6 °F 54% 30.10 in 10.0 mi South 18.4 mph 24.2 mph N/A   Clear
8:35 PM 23.0 °F 8.3 °F 8.6 °F 54% 30.08 in 10.0 mi South 19.6 mph 28.8 mph N/A   Clear
8:55 PM 23.0 °F 8.3 °F 8.6 °F 54% 30.07 in 10.0 mi South 19.6 mph 27.6 mph N/A   Clear
9:15 PM 23.0 °F 8.7 °F 8.6 °F 54% 30.07 in 10.0 mi South 18.4 mph 27.6 mph N/A   Clear
9:35 PM 23.0 °F 11.1 °F 8.6 °F 54% 30.07 in 10.0 mi South 12.7 mph 26.5 mph N/A   Clear
9:55 PM 23.0 °F 10.1 °F 8.6 °F 54% 30.06 in 10.0 mi South 15.0 mph 26.5 mph N/A   Clear
10:15 PM 23.0 °F 9.6 °F 8.6 °F 54% 30.05 in 10.0 mi South 16.1 mph - N/A   Clear
10:55 PM 23.0 °F 9.6 °F 8.6 °F 54% 30.03 in 10.0 mi South 16.1 mph 26.5 mph N/A   Clear
11:15 PM 23.0 °F 8.7 °F 8.6 °F 54% 30.01 in 10.0 mi South 18.4 mph - N/A   Clear
11:35 PM 23.0 °F 10.1 °F 10.4 °F 59% 30.01 in 10.0 mi South 15.0 mph 21.9 mph N/A   Clear
11:55 PM 23.0 °F 9.2 °F 10.4 °F 59% 30.00 in 10.0 mi South 17.3 mph 24.2 mph N/A   Clear